Weather History for Big Piney, WY

Change the Weather History Date:

Wednesday, February 13, 2013

  Actual Average Record
Temperature  
Mean Temperature 23 °F 14 °F  
Max Temperature 34 °F 28 °F 49 °F (1996)
Min Temperature 11 °F 1 °F -19 °F (2004)
Degree Days  
Heating Degree Days 42 51  
Month to date heating degree days 640 685  
Since 1 July heating degree days 6114 6798  
Cooling Degree Days 0 0  
Month to date cooling degree days 0 0  
Year to date cooling degree days 0 0  
Moisture  
Dew Point 15 °F    
Average Humidity 71    
Maximum Humidity 84    
Minimum Humidity 58    
Precipitation  
Precipitation 0.00 in 0.01 in 0.57 in (1995)
Month to date precipitation 0.09 0.15  
Year to date precipitation 0.16 0.46  
Sea Level Pressure  
Sea Level Pressure 30.17 in    
Wind  
Wind Speed 11 mph (North)    
Max Wind Speed 30 mph    
Max Gust Speed 37 mph    
Visibility 10 miles    
Events      
T = Trace of Precipitation, MM = Missing Value Source: NWS Daily Summary

Daily Weather History Graph

Daily Weather History Graph

Search for Another Location

Airport:

Trip Planner

Search our weather history database for the weather conditions in past years. The results will help you decide how hot, cold, wet, or windy it might be!

Date:

Astronomy

Feb. 13, 2013 Rise Set
Actual Time 7:19 AM MST 5:50 PM MST
Civil Twilight 6:50 AM MST 6:19 PM MST
Nautical Twilight 6:17 AM MST 6:52 PM MST
Astronomical Twilight 5:44 AM MST 7:25 PM MST
Moon 8:44 AM MST (2/13) 10:03 PM MST (2/13)
Length of Visible Light 11h 28m
Length of Day
10h 30m
Waxing Crescent, 14% of the Moon is Illuminated
Feb 13
Waxing Crescent
Feb 17
First Quarter
Feb 25
Full
Mar 4
Last Quarter
Mar 11
New

Hourly Weather History & Observations

Time (MST) Temp. Windchill Dew Point Humidity Pressure Visibility Wind Dir Wind Speed Gust Speed Precip Events Conditions
12:53 AM 16.0 °F 1.7 °F 10.0 °F 77% 30.21 in 10.0 mi NNE 13.8 mph - N/A   Mostly Cloudy
1:53 AM 18.0 °F 6.9 °F 10.9 °F 74% 30.19 in 10.0 mi North 9.2 mph - N/A   Clear
2:53 AM 19.9 °F 7.3 °F 14.0 °F 78% 30.17 in 10.0 mi North 12.7 mph - N/A   Clear
3:53 AM 21.0 °F 9.9 °F 14.0 °F 74% 30.17 in 10.0 mi North 10.4 mph - N/A   Mostly Cloudy
4:53 AM 21.9 °F 7.3 °F 15.1 °F 75% 30.17 in 10.0 mi North 18.4 mph 23.0 mph N/A   Partly Cloudy
5:53 AM 21.0 °F 9.9 °F 15.1 °F 78% 30.19 in 10.0 mi North 10.4 mph - N/A   Mostly Cloudy
6:53 AM 19.0 °F 12.3 °F 12.9 °F 77% 30.21 in 10.0 mi Variable 4.6 mph - N/A   Mostly Cloudy
7:53 AM 14.0 °F - 9.0 °F 80% 30.22 in 10.0 mi Calm Calm - N/A   Clear
8:53 AM 12.9 °F 1.6 °F 8.1 °F 81% 30.22 in 10.0 mi SSW 8.1 mph - N/A   Clear
9:53 AM 17.1 °F 10.0 °F 12.0 °F 81% 30.24 in 10.0 mi SSW 4.6 mph - N/A   Clear
10:53 AM 28.0 °F 14.6 °F 19.0 °F 69% 30.17 in 10.0 mi North 20.7 mph 25.3 mph N/A   Clear
11:53 AM 30.0 °F 22.4 °F 19.0 °F 64% 30.15 in 10.0 mi NNW 8.1 mph - N/A   Clear
12:53 PM 32.0 °F - 21.0 °F 64% 30.13 in 10.0 mi Calm Calm - N/A   Clear
1:53 PM 32.0 °F 21.2 °F 21.9 °F 66% 30.12 in 10.0 mi North 16.1 mph - N/A   Clear
2:53 PM 30.9 °F 19.1 °F 21.9 °F 69% 30.09 in 10.0 mi North 18.4 mph 25.3 mph N/A   Clear
3:53 PM 30.0 °F 17.5 °F 19.9 °F 66% 30.12 in 10.0 mi North 19.6 mph 26.5 mph N/A   Clear
4:53 PM 30.0 °F 18.3 °F 18.0 °F 61% 30.13 in 10.0 mi NNE 17.3 mph 21.9 mph N/A   Overcast
5:53 PM 26.1 °F 10.1 °F 17.1 °F 69% 30.12 in 10.0 mi North 27.6 mph 34.5 mph N/A   Clear
6:53 PM 25.0 °F 9.9 °F 16.0 °F 69% 30.16 in 10.0 mi NNW 23.0 mph 28.8 mph N/A   Clear
7:53 PM 21.0 °F 10.6 °F 14.0 °F 74% 30.22 in 10.0 mi NE 9.2 mph - N/A   Clear
8:53 PM 24.1 °F 13.7 °F 15.1 °F 69% 30.20 in 10.0 mi NNE 10.4 mph - N/A   Clear
9:53 PM 14.0 °F - 9.0 °F 80% 30.23 in 10.0 mi Calm Calm - N/A   Clear
10:53 PM 16.0 °F 8.8 °F 10.9 °F 81% 30.17 in 10.0 mi NW 4.6 mph - N/A   Clear
11:53 PM 12.9 °F 3.8 °F 9.0 °F 84% 30.17 in 10.0 mi NNW 5.8 mph - N/A   Partly Cloudy